Meriden, CT

12:00 AM EDT on April 30, 2017 (GMT -0400)
Meriden Markham Municipal

Weather History for KMMK - January, 2013

Change the Weather History Date:

Wednesday, January 30, 2013

  Actual Average (KOXC) Record (KOXC)
Temperature  
Mean Temperature 44 °F -  
Max Temperature 55 °F 32 °F 55 °F (2002)
Min Temperature 33 °F 18 °F 6 °F (2004)
Degree Days  
Heating Degree Days 21    
Moisture  
Dew Point 45 °F    
Average Humidity 95    
Maximum Humidity 100    
Minimum Humidity 92    
Precipitation  
Precipitation 0.01 in - - ()
Sea Level Pressure  
Sea Level Pressure 29.78 in    
Wind  
Wind Speed 5 mph (South)    
Max Wind Speed 18 mph    
Max Gust Speed 31 mph    
Visibility 3 miles    
Events Fog , Rain    
Averages and records for this station are not official NWS values.
T = Trace of Precipitation, MM = Missing Value Source: NWS Daily Summary

Daily Weather History Graph

Daily Weather History Graph

Search for Another Location

Airport or City:

Trip Planner

Search our weather history database for the weather conditions in past years. The results will help you decide how hot, cold, wet, or windy it might be!

Date:

Astronomy

Jan. 30, 2013 Rise Set
Actual Time 7:04 AM EST 5:05 PM EST
Civil Twilight 6:35 AM EST 5:34 PM EST
Nautical Twilight 6:02 AM EST 6:07 PM EST
Astronomical Twilight 5:29 AM EST 6:40 PM EST
Moon 9:04 PM EST 8:27 AM EST
Length of Visible Light 10h 59m
Length of Day
10h 00m
Waning Gibbous, 88% of the Moon is Illuminated
Jan 30
Waning Gibbous
Feb 3
Last Quarter
Feb 10
New
Feb 17
First Quarter
Feb 25
Full

Hourly Weather History & Observations

Time (EST) Temp. Windchill Dew Point Humidity Pressure Visibility Wind Dir Wind Speed Gust Speed Precip Events Conditions
12:24 AM 33.8 °F - 33.8 °F 100% 30.12 in 1.5 mi Calm Calm - N/A   Overcast
12:53 AM 34.0 °F - 33.1 °F 96% 30.10 in 2.5 mi Calm Calm - N/A   Overcast
1:39 AM 35.6 °F - 33.8 °F 93% 30.08 in 3.0 mi Calm Calm - N/A   Overcast
1:53 AM 35.1 °F - 33.1 °F 92% 30.08 in 3.0 mi Calm Calm - N/A   Overcast
2:01 AM 35.6 °F 32.8 °F 33.8 °F 93% 30.07 in 2.5 mi NNW 3.5 mph - N/A   Overcast
2:53 AM 35.1 °F - 34.0 °F 96% 30.04 in 2.5 mi Calm Calm - N/A   Overcast
3:26 AM 35.6 °F 32.8 °F 33.8 °F 93% 30.03 in 3.0 mi West 3.5 mph - N/A   Overcast
3:39 AM 35.6 °F - 33.8 °F 93% 30.02 in 2.5 mi Calm Calm - N/A   Overcast
3:53 AM 35.1 °F - 34.0 °F 96% 30.02 in 1.8 mi Calm Calm - N/A   Overcast
4:06 AM 35.6 °F - 33.8 °F 93% 30.01 in 2.0 mi Calm Calm - N/A   Overcast
4:19 AM 35.6 °F - 33.8 °F 93% 30.00 in 1.8 mi Calm Calm - N/A   Overcast
4:53 AM 34.0 °F 31.0 °F 33.1 °F 96% 29.98 in 1.2 mi West 3.5 mph - N/A   Overcast
5:02 AM 35.6 °F - 33.8 °F 93% 29.97 in 1.5 mi Calm Calm - N/A   Overcast
5:41 AM 35.6 °F - 33.8 °F 93% 29.96 in 0.8 mi Calm Calm - N/A   Overcast
5:53 AM 35.1 °F - 34.0 °F 96% 29.96 in 0.8 mi Calm Calm - N/A   Overcast
6:33 AM 35.6 °F - 33.8 °F 93% 29.95 in 0.2 mi Calm Calm - N/A Fog Fog
6:53 AM 34.0 °F - 33.1 °F 96% 29.94 in 0.2 mi Calm Calm - N/A Fog Fog
7:53 AM 35.1 °F - 34.0 °F 96% 29.91 in 0.2 mi Calm Calm - N/A Fog Fog
8:53 AM 37.0 °F - 36.0 °F 96% 29.89 in 0.2 mi Calm Calm - N/A Fog Fog
10:15 AM 48.2 °F - 48.2 °F 100% 29.85 in 0.5 mi South 10.4 mph - N/A Fog Fog
10:53 AM 50.0 °F - 48.9 °F 96% 29.82 in 1.0 mi South 10.4 mph - N/A   Overcast
11:26 AM 51.8 °F - 50.0 °F 94% 29.78 in 2.0 mi South 10.4 mph - N/A   Overcast
11:53 AM 51.1 °F - 50.0 °F 96% 29.76 in 2.5 mi South 10.4 mph 17.3 mph N/A   Overcast
12:17 PM 51.8 °F - 50.0 °F 94% 29.76 in 3.0 mi South 6.9 mph 17.3 mph N/A   Overcast
12:44 PM 51.8 °F - 50.0 °F 94% 29.74 in 3.0 mi South 11.5 mph - N/A   Overcast
12:53 PM 52.0 °F - 50.0 °F 93% 29.74 in 3.0 mi South 11.5 mph - N/A   Overcast
1:44 PM 51.8 °F - 51.8 °F 100% 29.72 in 2.5 mi South 8.1 mph - N/A   Overcast
1:51 PM 51.8 °F - 51.8 °F 100% 29.71 in 2.0 mi South 11.5 mph - N/A   Overcast
1:53 PM 52.0 °F - 51.1 °F 97% 29.71 in 2.0 mi SSE 10.4 mph - N/A   Overcast
2:00 PM 51.8 °F - 51.8 °F 100% 29.70 in 1.2 mi SSE 11.5 mph 18.4 mph N/A   Overcast
2:13 PM 51.8 °F - 51.8 °F 100% 29.70 in 0.8 mi South 10.4 mph 18.4 mph N/A   Overcast
2:40 PM 51.8 °F - 50.0 °F 94% 29.69 in 1.2 mi South 10.4 mph - N/A   Overcast
2:53 PM 51.1 °F - 50.0 °F 96% 29.68 in 1.5 mi South 11.5 mph - N/A   Overcast
3:25 PM 51.8 °F - 50.0 °F 94% 29.66 in 2.5 mi South 12.7 mph 18.4 mph N/A   Overcast
3:37 PM 51.8 °F - 50.0 °F 94% 29.66 in 3.0 mi South 9.2 mph 18.4 mph N/A   Overcast
3:53 PM 52.0 °F - 50.0 °F 93% 29.66 in 4.0 mi South 11.5 mph - 0.00 in Rain Light Rain
4:53 PM 52.0 °F - 50.0 °F 93% 29.64 in 4.0 mi South 12.7 mph 24.2 mph 0.00 in   Overcast
5:53 PM 52.0 °F - 51.1 °F 97% 29.62 in 6.0 mi South 16.1 mph 21.9 mph 0.00 in   Overcast
6:26 PM 53.6 °F - 51.8 °F 94% 29.61 in 10.0 mi South 12.7 mph 20.7 mph N/A   Overcast
6:53 PM 54.0 °F - 52.0 °F 93% 29.60 in 9.0 mi South 12.7 mph 19.6 mph N/A   Overcast
7:33 PM 55.4 °F - 53.6 °F 94% 29.60 in 4.0 mi South 13.8 mph 24.2 mph 0.01 in Rain Light Rain
7:53 PM 55.0 °F - 53.1 °F 93% 29.60 in 6.0 mi South 15.0 mph 19.6 mph 0.01 in Rain Light Rain
8:16 PM 53.6 °F - 51.8 °F 94% 29.59 in 6.0 mi South 11.5 mph - 0.00 in Rain Light Rain
8:41 PM 53.6 °F - 51.8 °F 94% 29.58 in 6.0 mi South 13.8 mph 20.7 mph 0.00 in Rain Light Rain
8:53 PM 54.0 °F - 52.0 °F 93% 29.57 in 6.0 mi South 11.5 mph 18.4 mph 0.00 in Rain Light Rain
9:14 PM 53.6 °F - 51.8 °F 94% 29.56 in 6.0 mi South 16.1 mph - 0.00 in   Overcast
9:53 PM 52.0 °F - 51.1 °F 97% 29.54 in 2.0 mi South 12.7 mph - 0.00 in Rain Light Rain
10:32 PM 53.6 °F - 51.8 °F 94% 29.51 in 3.0 mi South 11.5 mph 21.9 mph 0.00 in Rain Light Rain
10:39 PM 53.6 °F - 51.8 °F 94% 29.50 in 2.5 mi South 16.1 mph 20.7 mph 0.00 in Rain Light Rain
10:53 PM 53.1 °F - 52.0 °F 96% 29.49 in 2.5 mi South 12.7 mph 20.7 mph 0.00 in Rain Light Rain
11:00 PM 53.6 °F - 51.8 °F 94% 29.49 in 3.0 mi South 11.5 mph 18.4 mph 0.00 in   Overcast
11:53 PM 55.0 °F - 53.1 °F 93% 29.44 in 6.0 mi South 18.4 mph 31.1 mph 0.00 in   Overcast